map of PIO home
PIO - Airport
Location
City:  Pisco, Ica, Perú
Name:Capitán FAP Renán Elías Olivera Airport
ICAO:SPSO
IATA:PIO

Details
Type:Airport (Aerodrome, Airfield)
Use:Public/Civil, Military, International (customs port of entry)
Latitude:13°44'41"S (-13.744799)
Longitude:76°13'13"W (-76.220410)
Elevation:39 ft (12 m)
Variation:2.19°W (WMM2015 magnetic declination)
-0.17° annual change
Runways:1
Longest:9908 × 148 ft (3020 × 45 m), paved

Time
Time Zone:UTC-5
Local Time:

Weather
METAR:SPSO 211100Z VRB01KT 5000 BR BKN008 OVC012 22/20 Q1012 RMK BIRD HAZARD RWY 22/04 PP000
TAF:SPSO 210500Z 2106/2206 21008KT 7000 NSC TX26/2119Z TN18/2110Z
TEMPO 2110/2112 4000 BR BKN005
BECMG 2114/2116 30010KT CAVOK
BECMG 2119/2121 22014KT
BECMG 2123/2203 21006KT 8000 NSC

Related Locations
Nearby:
Farthest:REP: 12447 mi / 20032 km
Siem Reap [Angkor Intl], 17, KH

Find:

   beyond  
but within

Other Information
Maps:
NOTAMs:
Links:
Sources:

  
  • flag of Perú
  • flag of Ica
  

Sectional Chart

Flight Planning
at skyvector.com

Satellite Image

Google Maps Satellite view

 

Copyright © 2004-2019 Karl L. Swartz. All rights reserved.
The Great Circle Mapper name and logo are trademarks of the Great Circle Mapper.
All other trademarks mentioned herein belong to their respective owners.
Please see credits for attibutions and further copyright information.

  Follow gcmap on Facebook Follow gcmap on Twitter Follow gcmap on Google+ GCmap on LinkedIn

hCard Microformat

Geo Microformat